Campo, CA

10:23 AM PST on December 12, 2017 (GMT -0800)
Campo

Weather History for KCZZ - April, 2012

Change the Weather History Date:

Tuesday, April 3, 2012

  Actual Average Record
Temperature  
Mean Temperature 52 °F 53 °F  
Max Temperature 72 °F 70 °F 88 °F (1961)
Min Temperature 31 °F 36 °F 23 °F (1976)
Degree Days  
Heating Degree Days 13 12  
Month to date heating degree days 52 36  
Since 1 July heating degree days 2843 2504  
Cooling Degree Days 0 0  
Month to date cooling degree days 0 0  
Year to date cooling degree days 0 0  
Growing Degree Days 2 (Base 50)    
Moisture  
Dew Point 26 °F    
Average Humidity 41    
Maximum Humidity 66    
Minimum Humidity 15    
Precipitation  
Precipitation 0.00 in 0.05 in 1.22 in (1965)
Month to date precipitation 0.02 0.15  
Year to date precipitation 3.81 9.05  
Since 1 July precipitation 9.05  
Snow  
Snow 0.00 in - - ()
Month to date snowfall 0.0  
Year to date snowfall 0.0  
Snow Depth 0.00 in    
Sea Level Pressure  
Sea Level Pressure 29.92 in    
Wind  
Wind Speed 5 mph (NW)    
Max Wind Speed 17 mph    
Max Gust Speed 22 mph    
T = Trace of Precipitation, MM = Missing Value Source: NWS Daily Summary

Daily Weather History Graph

Daily Weather History Graph

Search for Another Location

Airport or City:

Trip Planner

Search our weather history database for the weather conditions in past years. The results will help you decide how hot, cold, wet, or windy it might be!

Date:

Astronomy

Apr. 03, 2012 Rise Set
Actual Time 6:30 AM PDT 7:07 PM PDT
Civil Twilight 6:05 AM PDT 7:32 PM PDT
Nautical Twilight 5:36 AM PDT 8:01 PM PDT
Astronomical Twilight 5:06 AM PDT 8:31 PM PDT
Moon 4:05 PM PDT (4/3) 4:10 AM PDT (4/3)
Length of Visible Light 13h 26m
Length of Day
12h 37m
Waxing Gibbous, 87% of the Moon is Illuminated
Apr 3
Waxing Gibbous
Apr 6
Full
Apr 13
Last Quarter
Apr 21
New
Apr 29
First Quarter

Hourly Weather History & Observations

Time (PDT) Temp. Windchill Dew Point Humidity Pressure Visibility Wind Dir Wind Speed Gust Speed Precip Events Conditions
12:52 AM 41.0 °F 37.1 °F 24.1 °F 51% 29.92 in - NE 5.8 mph - N/A   Unknown
1:52 AM 39.9 °F 36.7 °F 23.0 °F 51% 29.91 in - NNE 4.6 mph - N/A   Unknown
2:52 AM 35.1 °F 27.4 °F 23.0 °F 61% 29.90 in - ENE 10.4 mph - N/A   Unknown
3:52 AM 35.1 °F - 24.1 °F 64% 29.91 in - Calm Calm - N/A   Unknown
4:52 AM 35.1 °F 32.2 °F 23.0 °F 61% 29.91 in - ENE 3.5 mph - N/A   Unknown
5:52 AM 32.0 °F 27.5 °F 23.0 °F 69% 29.93 in - NNE 4.6 mph - N/A   Unknown
6:52 AM 35.1 °F 31.0 °F 23.0 °F 61% 29.96 in - NE 4.6 mph - N/A   Unknown
7:52 AM 44.1 °F - 26.1 °F 49% 29.98 in - Calm Calm - N/A   Unknown
8:52 AM 57.0 °F - 28.9 °F 34% 29.96 in - Calm Calm - N/A   Unknown
9:52 AM 64.0 °F - 16.0 °F 16% 29.96 in - Calm Calm - N/A   Unknown
10:52 AM 68.0 °F - 21.0 °F 17% 29.95 in - Calm Calm - N/A   Unknown
11:52 AM 69.1 °F - 28.0 °F 22% 29.94 in - SSW 6.9 mph 16.1 mph N/A   Unknown
12:52 PM 69.1 °F - 27.0 °F 21% 29.91 in - Variable 3.5 mph - N/A   Unknown
1:52 PM 70.0 °F - 28.9 °F 22% 29.90 in - SW 10.4 mph 16.1 mph N/A   Unknown
2:52 PM 72.0 °F - 28.9 °F 20% 29.88 in - WNW 10.4 mph - N/A   Unknown
3:52 PM 70.0 °F - 30.0 °F 23% 29.88 in - West 12.7 mph - N/A   Unknown
4:52 PM 69.1 °F - 30.0 °F 23% 29.87 in - WNW 15.0 mph 20.7 mph N/A   Unknown
5:52 PM 64.9 °F - 30.0 °F 27% 29.89 in - WNW 15.0 mph 21.9 mph N/A   Unknown
6:52 PM 61.0 °F - 25.0 °F 25% 29.91 in - West 9.2 mph 18.4 mph N/A   Unknown
7:52 PM 57.0 °F - 26.1 °F 30% 29.92 in - NW 8.1 mph - N/A   Unknown
8:52 PM 52.0 °F - 26.1 °F 37% 29.94 in - South 3.5 mph - N/A   Unknown
9:52 PM 48.9 °F - 26.1 °F 41% 29.95 in - Calm Calm - N/A   Unknown
10:52 PM 42.1 °F - 27.0 °F 55% 29.95 in - Calm Calm - N/A   Unknown
11:52 PM 39.0 °F - 26.1 °F 60% 29.95 in - Calm Calm - N/A   Unknown